www.pogodaiklimat.ru

Погода и климат >> Архив погоды >> Бразилия >> Comodoro


ПОГОДА в Comodoro

  • Прогноз погоды в Comodoro
  • Монитор погоды в Comodoro
  • Климат города

АРХИВ ПОГОДЫ в Comodoro

Время (UTC), дата Ветер
(напр.,м/с)
 
Видим.   Явления Облачность Т
(С)
Тd
(С)
f
(%)
Тe
(С)
Тes
(С)
Комфортность P
(гПа)
Po
(гПа)
Тmin
(С)
Tmax
(С)
R
(мм)
R24
(мм)
S
(см)
16 12.07 С 2
{4}
н/о н/о +29.0 +24 +24 комфорт 1015.3 951.2
17 12.07 С 1
{4}
н/о н/о +29.2 +24 +24 комфорт 1014.7 950.6
18 12.07 С 1
{4}
н/о н/о +29.7 +25 +25 комфорт 1013.8 949.9
20 12.07 Ю 2
{3}
н/о н/о +27.8 +23 +23 комфорт 1013.5 949.2
19 12.07 ЮЗ 2
{3}
н/о н/о +28.2 +23 +23 комфорт 1013.7 949.5
21 12.07 ЮЗ 1
{3}
н/о н/о +26.1 +22 +22 комфорт 1014.0 949.3
22 12.07 штиль 0
{2}
н/о н/о +22.1 -25.2 3 +19 +19 1015.4 949.8
23 12.07 штиль 0
{1}
н/о н/о +19.5 -26.9 3 +19 +19 1016.5 950.3
00 13.07 штиль 0
{1}
н/о н/о +18.1 -27.9 3 +18 +18 1017.4 950.8
02 13.07 штиль 0
{1}
н/о н/о +16.1 -29.2 3 +16 +16 1018.4 951.3
01 13.07 штиль 0
{1}
н/о н/о +17.2 -27.5 3 +17 +17 1018.0 951.2
03 13.07 штиль 0
{1}
н/о н/о +15.4 -29.6 3 +16 +16 1018.6 951.3
04 13.07 В 1
{1}
н/о н/о +14.9 -30.1 3 +17 +17 1018.9 951.5
05 13.07 штиль 0
{1}
н/о н/о +14.0 -30.7 3 +14 +14 1018.8 951.2
06 13.07 штиль 0
{1}
н/о н/о +13.5 -31.1 3 +14 +14 1018.6 950.9
08 13.07 штиль 0
{1}
н/о н/о +12.6 -29.7 4 +13 +13 1017.9 950.0
07 13.07 штиль 0
{1}
н/о н/о +13.2 -31.2 3 +13 +13 1018.0 950.3
09 13.07 штиль 0 н/о н/о +12.2 -31.9 3 +13 +13 1018.4 950.4 0.2
10 13.07 штиль 0
{1}
н/о н/о +12.0 -32.1 3 +12 +12 1018.9 950.8
11 13.07 штиль 0
{1}
н/о н/о +12.2 -31.9 3 +13 +13 1019.3 951.2
12 13.07 штиль 0
{1}
н/о н/о +15.9 +16 +16 1018.8 951.6
14 13.07 З 1
{2}
н/о н/о +26.9 +22 +22 комфорт 1016.8 952.1
13 13.07 штиль 0
{1}
н/о н/о +21.7 +19 +19 1017.9 952.1
15 13.07 С 1
{2}
н/о н/о +28.4 +23 +23 комфорт 1016.3 952.0
16 13.07 ЮЗ 1
{3}
н/о н/о +29.6 +25 +25 комфорт 1015.0 951.0
17 13.07 ЮЗ 2
{3}
н/о н/о +30.2 +25 +25 комфорт 1014.0 950.2
18 13.07 З 2
{3}
н/о н/о +31.0 +26 +26 жарко 1012.7 949.1
20 13.07 ЮЗ 2
{4}
н/о н/о +29.1 +24 +24 комфорт 1012.0 948.1
19 13.07 З 2
{3}
н/о н/о +29.7 +25 +25 комфорт 1012.5 948.7
21 13.07 Ю 2
{3}
н/о н/о +27.0 +22 +22 комфорт 1012.6 948.2
22 13.07 штиль 0
{3}
н/о н/о +23.0 +19 +19 1013.9 948.6
23 13.07 штиль 0
{1}
н/о н/о +20.0 -26.7 3 +19 +19 1014.8 948.8
00 14.07 штиль 0
{1}
н/о н/о +18.4 -27.7 3 +18 +18 1015.8 949.4
02 14.07 штиль 0
{1}
н/о н/о +16.4 -27.1 4 +17 +17 1017.2 950.2
01 14.07 штиль 0
{1}
н/о н/о +17.3 -28.4 3 +17 +17 1016.8 950.1
03 14.07 штиль 0
{1}
н/о н/о +15.4 -29.4 3 +16 +16 1017.4 950.2
04 14.07 штиль 0
{1}
н/о н/о +15.2 -29.7 3 +15 +15 1017.3 950.1
05 14.07 В 1
{1}
н/о н/о +14.6 -30.3 3 +16 +16 1017.3 949.9
06 14.07 штиль 0
{1}
н/о н/о +14.2 -30.6 3 +14 +14 1016.7 949.3
08 14.07 штиль 0
{1}
н/о н/о +13.6 -31.0 3 +14 +14 1016.1 948.6
07 14.07 штиль 0 н/о н/о +13.7 -30.9 3 +14 +14 1016.2 948.7
09 14.07 штиль 0
{1}
н/о н/о +13.4 -31.1 3 +14 +14 1016.3 948.7
10 14.07 штиль 0
{1}
н/о н/о +13.2 -31.2 3 +13 +13 1016.6 949.0
11 14.07 штиль 0
{1}
н/о н/о +13.5 -31.1 3 +14 +14 1017.0 949.4
12 14.07 штиль 0
{1}
н/о н/о +16.6 +17 +17 1017.0 950.1 0.2
14 14.07 В 1
{2}
н/о н/о +27.8 +23 +23 комфорт 1014.8 950.4
13 14.07 В 1
{2}
н/о н/о +22.8 +19 +19 1016.0 950.5
15 14.07 В 1
{2}
н/о н/о +29.8 +25 +25 комфорт 1014.0 950.1
16 14.07 СВ 1
{3}
н/о н/о +31.0 +26 +26 жарко 1013.0 949.4
17 14.07 С 1
{4}
н/о н/о +31.2 +26 +26 жарко 1012.1 948.6
18 14.07 СЗ 2
{4}
н/о н/о +32.1 +27 +27 жарко 1010.7 947.5
20 14.07 СВ 1
{3}
н/о н/о +30.2 +25 +25 комфорт 1010.1 946.5
19 14.07 С 1
{3}
н/о н/о +31.8 +27 +27 жарко 1010.1 946.9
21 14.07 С 1
{2}
н/о н/о +30.0 +25 +25 комфорт 1010.2 946.6
22 14.07 штиль 0
{1}
н/о н/о +23.5 +20 +20 1011.9 946.8
23 14.07 штиль 0
{1}
н/о н/о +20.5 -26.3 3 +19 +19 1013.0 947.2
00 15.07 штиль 0
{1}
н/о н/о +18.9 -27.4 3 +18 +18 1013.9 947.7
02 15.07 штиль 0
{1}
н/о н/о +17.2 -28.5 3 +17 +17 1015.3 948.6
01 15.07 штиль 0
{1}
н/о н/о +17.9 -28.1 3 +18 +18 1015.0 948.5
03 15.07 штиль 0
{1}
н/о н/о +16.4 -29.1 3 +17 +17 1015.4 948.6
04 15.07 штиль 0 н/о н/о +15.9 -29.4 3 +16 +16 1015.5 948.5
05 15.07 штиль 0 н/о н/о +15.6 -29.6 3 +16 +16 1014.9 947.9
06 15.07 штиль 0
{1}
н/о н/о +15.2 -29.9 3 +15 +15 1014.6 947.5
08 15.07 штиль 0
{1}
н/о н/о +15.2 -29.9 3 +15 +15 1014.2 947.2
07 15.07 штиль 0
{1}
н/о н/о +14.8 -30.1 3 +15 +15 1014.4 947.3
09 15.07 штиль 0
{1}
н/о н/о +15.2 -29.9 3 +15 +15 1014.8 947.7
10 15.07 штиль 0
{1}
н/о н/о +14.9 -30.1 3 +15 +15 1015.2 948.0
11 15.07 штиль 0 н/о н/о +15.7 -29.6 3 +16 +16 1015.6 948.6
12 15.07 штиль 0 н/о н/о +18.8 +18 +18 1015.5 949.2
14 15.07 С 1
{3}
н/о н/о +27.1 +22 +22 комфорт 1014.1 949.6
13 15.07 С 1
{2}
н/о н/о +23.7 +20 +20 1014.8 949.6
15 15.07 СЗ 2
{3}
н/о н/о +29.2 +24 +24 комфорт 1013.4 949.4
16 15.07 СЗ 2
{4}
н/о н/о +30.7 +26 +26 жарко 1012.3 948.7
17 15.07 СЗ 2
{5}
н/о н/о +31.6 +26 +26 жарко 1011.5 948.1
18 15.07 С 2
{5}
н/о н/о +30.1 +25 +25 комфорт 1011.2 947.5
20 15.07 СЗ 1
{4}
н/о н/о +29.4 +24 +24 комфорт 1010.5 946.7
19 15.07 СЗ 2
{4}
н/о н/о +31.0 +26 +26 жарко 1010.2 946.8
21 15.07 С 1
{3}
н/о н/о +28.3 +23 +23 комфорт 1010.8 946.8
22 15.07 В 1
{2}
н/о н/о +23.0 +19 +19 1012.5 947.3
23 15.07 штиль 0
{1}
н/о н/о +21.1 -25.9 3 +19 +19 1013.5 947.8
00 16.07 штиль 0
{1}
н/о н/о +19.6 -26.9 3 +19 +19 1014.6 948.5
02 16.07 штиль 0 н/о н/о +18.6 -27.6 3 +18 +18 1015.7 949.3
01 16.07 штиль 0 н/о н/о +18.8 -27.4 3 +18 +18 1015.2 948.9
03 16.07 штиль 0
{1}
н/о н/о +18.1 -27.9 3 +18 +18 1016.0 949.5
04 16.07 штиль 0
{1}
н/о н/о +17.5 -28.3 3 +18 +18 1016.3 949.6
05 16.07 штиль 0
{1}
н/о н/о +17.0 -28.1 3 +17 +17 1016.2 949.4
06 16.07 штиль 0
{1}
н/о н/о +16.6 -28.6 3 +17 +17 1016.0 949.2
08 16.07 штиль 0
{1}
н/о н/о +16.8 -28.8 3 +17 +17 1016.1 949.3
07 16.07 штиль 0
{1}
н/о н/о +16.3 -29.0 3 +16 +16 1015.9 949.0
09 16.07 штиль 0
{1}
н/о н/о +16.2 -29.0 3 +16 +16 1016.6 949.6 0.2
10 16.07 штиль 0
{1}
н/о н/о +15.7 -29.5 3 +16 +16 1017.1 950.0
11 16.07 штиль 0
{1}
н/о н/о +15.8 -29.5 3 +16 +16 1017.8 950.7
12 16.07 штиль 0
{1}
н/о н/о +18.7 +18 +18 1018.1 951.6
14 16.07 СЗ 1
{2}
н/о н/о +28.8 +24 +24 комфорт 1016.2 952.0
13 16.07 штиль 0
{1}
н/о н/о +24.3 +20 +20 1017.4 952.1
15 16.07 С 1
{3}
н/о н/о +29.5 +24 +24 комфорт 1015.7 951.6
16 16.07 З 2
{3}
н/о н/о +31.3 +26 +26 жарко 1014.5 950.9
17 16.07 З 2
{3}
н/о н/о +31.3 +26 +26 жарко 1013.8 950.2
18 16.07 ЮЗ 2
{4}
н/о н/о +29.8 +25 +25 комфорт 1013.5 949.6
20 16.07 ЮВ 1
{3}
н/о н/о +27.8 +23 +23 комфорт 1013.2 948.9
19 16.07 Ю 1
{3}
н/о н/о +29.1 +24 +24 комфорт 1013.1 949.1
21 16.07 СЗ 1
{4}
н/о н/о +24.0 +20 +20 1013.9 948.8
22 16.07 штиль 0
{2}
н/о н/о +22.1 -25.2 3 +19 +19 1014.4 948.9
23 16.07 штиль 0
{1}
н/о н/о +20.3 -23.7 4 +19 +19 1015.1 949.1
00 17.07 штиль 0
{1}
н/о н/о +19.4 -24.4 4 +19 +19 1015.9 949.7
02 17.07 штиль 0 н/о н/о +17.9 -28.0 3 +18 +18 1016.9 950.3
01 17.07 штиль 0 н/о н/о +18.7 -27.3 3 +18 +18 1016.5 950.1
03 17.07 штиль 0
{1}
н/о н/о +17.4 -28.4 3 +17 +17 1016.9 950.2
04 17.07 штиль 0
{1}
н/о н/о +16.9 -28.8 3 +17 +17 1017.1 950.3
05 17.07 штиль 0
{1}
н/о н/о +16.3 -29.2 3 +16 +16 1016.9 949.9
06 17.07 штиль 0
{1}
н/о н/о +16.3 -29.1 3 +16 +16 1016.6 949.7
08 17.07 штиль 0
{1}
н/о н/о +16.3 -29.1 3 +16 +16 1016.3 949.4
07 17.07 штиль 0
{1}
н/о н/о +16.6 -29.0 3 +17 +17 1016.3 949.4 0.2
09 17.07 штиль 0
{1}
н/о н/о +15.8 -29.5 3 +16 +16 1016.7 949.6
10 17.07 штиль 0
{1}
н/о н/о +15.4 -29.8 3 +16 +16 1016.9 949.7
11 17.07 штиль 0 н/о н/о +15.4 -29.7 3 +16 +16 1017.5 950.3
12 17.07 штиль 0 н/о н/о +18.1 +18 +18 1017.5 950.9
14 17.07 В 1
{3}
н/о н/о +28.3 +23 +23 комфорт 1015.4 951.1
13 17.07 В 1
{1}
н/о н/о +24.5 +21 +21 комфорт 1016.2 951.1
15 17.07 В 1
{3}
н/о н/о +29.8 +25 +25 комфорт 1014.6 950.7
16 17.07 С 1
{3}
н/о н/о +30.5 +25 +25 комфорт 1013.6 949.9
17 17.07 СВ 1
{3}
н/о н/о +31.8 +27 +27 жарко 1012.6 949.2
18 17.07 В 1
{3}
н/о н/о +31.6 +26 +26 жарко 1011.6 948.2
20 17.07 СВ 1
{2}
н/о н/о +31.2 +26 +26 жарко 1010.5 947.1
19 17.07 В 1
{3}
н/о н/о +32.0 +27 +27 жарко 1010.6 947.4
21 17.07 штиль 0
{1}
н/о н/о +27.9 +23 +23 комфорт 1011.1 947.0
22 17.07 штиль 0
{1}
н/о н/о +22.1 +19 +19 1012.8 947.4
23 17.07 Ю 1
{1}
н/о н/о +18.8 +20 +20 1013.9 947.7
00 18.07 штиль 0
{1}
н/о н/о +18.7 -27.5 3 +18 +18 1014.3 948.0
02 18.07 ЮВ 1
{1}
н/о н/о +16.8 -27.1 3 +18 +18 1015.5 948.7
01 18.07 штиль 0
{1}
н/о н/о +17.5 -28.3 3 +18 +18 1014.9 948.3
03 18.07 штиль 0
{1}
н/о н/о +15.9 -29.1 3 +16 +16 1015.8 948.8
04 18.07 штиль 0
{1}
н/о н/о +15.6 -27.2 4 +16 +16 1015.9 948.8
05 18.07 штиль 0
{1}
н/о н/о +15.0 -28.6 3 +15 +15 1015.8 948.6
06 18.07 штиль 0
{1}
н/о н/о +14.6 -30.3 3 +15 +15 1015.6 948.3
08 18.07 штиль 0
{1}
н/о н/о +13.6 -31.0 3 +14 +14 1015.4 947.9
07 18.07 штиль 0
{1}
н/о н/о +14.1 -30.6 3 +14 +14 1015.4 948.0
09 18.07 штиль 0
{1}
н/о н/о +13.4 -31.1 3 +14 +14 1015.6 948.1
10 18.07 штиль 0 н/о н/о +12.7 -31.5 3 +13 +13 1016.1 948.4
11 18.07 штиль 0 н/о н/о +13.3 -31.2 3 +14 +14 1016.4 948.8 0.2
12 18.07 В 1
{1}
н/о н/о +17.1 +19 +19 1016.5 949.7
14 18.07 СВ 1
{4}
н/о н/о +28.0 +23 +23 комфорт 1014.7 950.4
13 18.07 СВ 1
{3}
н/о н/о +24.3 -23.7 3 +21 +21 комфорт 1015.4 950.3
15 18.07 С 2
{4}
н/о н/о +29.1 +24 +24 комфорт 1013.9 949.9
16 18.07 С 2
{4}
н/о н/о +30.2 +25 +25 комфорт 1012.8 949.1
17 18.07 СВ 2
{4}
н/о н/о +30.7 +26 +26 жарко 1011.8 948.2
18 18.07 С 1
{4}
н/о н/о +30.7 +26 +26 жарко 1010.8 947.3
20 18.07 С 1
{3}
н/о н/о +30.4 +25 +25 комфорт 1009.7 946.2
19 18.07 СВ 1
{3}
н/о н/о +31.2 +26 +26 жарко 1009.8 946.5
21 18.07 СВ 1
{3}
н/о н/о +29.2 +24 +24 комфорт 1010.2 946.4
22 18.07 штиль 0
{2}
н/о н/о +22.4 +19 +19 1012.0 946.7
23 18.07 штиль 0
{1}
н/о н/о +19.8 +19 +19 1012.8 946.9
00 19.07 штиль 0
{1}
н/о н/о +18.3 -27.8 3 +18 +18 1013.6 947.3
02 19.07 штиль 0
{1}
н/о н/о +16.3 -29.1 3 +16 +16 1014.4 947.6
01 19.07 штиль 0
{1}
н/о н/о +17.1 -28.6 3 +17 +17 1014.0 947.4
03 19.07 штиль 0
{1}
н/о н/о +16.0 -29.3 3 +16 +16 1014.5 947.6
04 19.07 штиль 0
{1}
н/о н/о +15.5 -25.4 4 +16 +16 1014.7 947.7
05 19.07 штиль 0 н/о н/о +15.0 -25.3 5 +15 +15 1014.4 947.3
06 19.07 штиль 0
{1}
н/о н/о +14.6 -26.2 4 +15 +15 1014.3 947.1
08 19.07 штиль 0
{1}
н/о н/о +14.3 -26.9 4 +15 +15 1014.0 946.8
07 19.07 штиль 0
{1}
н/о н/о +14.4 -25.4 5 +15 +15 1013.9 946.7
09 19.07 штиль 0
{1}
н/о н/о +13.9 -29.0 4 +14 +14 1014.5 947.2
10 19.07 штиль 0
{1}
н/о н/о +13.6 -30.6 3 +14 +14 1015.2 947.7
11 19.07 штиль 0
{1}
н/о н/о +13.9 -30.8 3 +14 +14 1015.6 948.2
12 19.07 штиль 0
{1}
н/о н/о +18.0 +18 +18 1015.4 948.9
14 19.07 С 2
{4}
н/о н/о +27.8 +23 +23 комфорт 1013.6 949.3
13 19.07 С 1
{2}
н/о н/о +24.7 -23.4 3 +21 +21 комфорт 1014.2 949.2

 

Местоположение метеостанции Comodoro (Бразилия): широта -13.72 долгота -59.77 высота над уровнем моря 593 м.

В архиве по умолчанию представлена погода в Comodoro за последнюю неделю. Архивные данные за месяц целиком и за предыдущие месяцы, начиная с января 2011 года, Вы можете получить, выбрав интересующий диапазон дат из раскрывающегося списка и нажав кнопку "Ввод!".


*Определитесь, кто Вы:
робот инопланетянин человек

Внимание! Время в таблицах - всемирное. Для получения местного времени необходимо прибавить поправку, которая в Comodoro равна -3 ч.

Смотрите также архив погоды в соседних городах и на ближайших метеорологических станциях:

Погода в Vilhena (Бразилия) (118 км)
Погода в Vilhena (Бразилия) (119 км)
Погода в Vila Bela da S Trind (Бразилия) (151 км)
Погода в Pontes E Lacerda (Бразилия) (176 км)
Погода в Campo Novo dos Parecis (Бразилия) (210 км)
Погода в Novo Mundo (Бразилия) (214 км)
Погода в Salto do Ceu (Бразилия) (236 км)
Погода в Tangara da Serra (Бразилия) (273 км)
Погода в Juina (Бразилия) (282 км)
Погода в Nova Maringa (Бразилия) (299 км)

Пояснения к столбцам:

Ветер - указаны скорость ветра в м/с - средняя за 10 мин, порывы в срок и между сроками (в фигурных скобках) и направление, откуда дует ветер: С - северный, СВ - северо-восточный, В - восточный, ЮВ - юго-восточный, Ю - южный, ЮЗ - юго-западный, З - западный, СЗ - северо-западный.
Видимость - горизонтальная дальность видимости в метрах или километрах. При видимости от 1 до 10 км при отсутствии осадков обычно наблюдается дымка, при ухудшении видимости до 1 км и менее - туман. В сухую погоду видимость может ухудшаться дымом, пылью или мглою.
Явления - указаны атмосферные явления, наблюдавшиеся в срок или в последний час перед сроком; фигурными скобками обозначены явления, наблюдавшиеся между сроками (за 1-3 часа до срока); квадратными скобками обозначены град или гололедные отложения с указанием их диаметра в мм.
Облачность - указаны через наклонную черту общая и нижняя облачность в баллах и высота нижней границы облаков в метрах; квадратными скобками обозначены формы облаков: Ci - перистые, Cs - перисто-слоистые, Cc - перисто-кучевые, Ac - высококучевые, As - высокослоистые, Sc - слоисто-кучевые, Ns - слоисто-дождевые, Cu - кучевые, Cb - кучево-дождевые. Подробнее классификацию облаков см. в Атласе облаков (PDF).
T - Температура воздуха - температура, измеренная на высоте 2 м над землей.
Td - Температура точки росы - температура, при понижении до которой содержащийся в воздухе водяной пар достигнет насыщения.
f - Относительная влажность воздуха - влажноcть воздуха, измеренная на высоте 2 м над землей.
Te - Эффективная температура - температура, которую ощущает одетый по сезону человек в тени. Характеристика душности погоды. При расчете учитывается влияние влажности воздуха и скорости ветра на теплоощущения человека.
Tes - Эффективная температура на солнце - температура, которую ощущает человек, с поправкой на солнечный нагрев. Характеристика знойности погоды. Зависит от высоты солнца над горизонтом, облачности и скорости ветра. Ночью, в пасмурную погоду, а также при ветре 12 м/с и более поправка равна нулю.
P - Атмосферное давление - приведенное к уровню моря атмосферное давление.
Po - Атмосферное давление - измеренное на уровне метеостанции атмосферное давление.
Tmin - Минимальная температура - минимум температуры воздуха на высоте 2 м над землей.
Tmax - Максимальная температура - максимум температуры воздуха на высоте 2 м над землей.
R - Количество осадков - Количество выпавших осадков за период времени, мм. При наведении курсора мыши на число - период времени, за который выпало указанное количество осадков.
R24 - Количество осадков - Количество выпавших осадков за 24 часа, мм.
S - Снежный покров - Высота снежного покрова, см. При наведении курсора мыши на число - состояние снежного покрова и степень покрытия местности в баллах.